Regional Weather Roundup
Issued by NWS

Home | Current Version | Previous Version | Text Only | Print | Product List | Glossary Off
Versions: 1 2 3 4 5 6 7 8 9 10 11 12 13 14 15 16 17 18 19 20 21 22 23 24 25 26 27 28 29 30 31 32 33 34 35 36 37 38 39 40 41 42 43 44 45 46 47 48 49 50

000
ASUS45 KBOU 280010
RWRCO

WEATHER ROUNDUP FOR COLORADO
NATIONAL WEATHER SERVICE DENVER/BOULDER CO
600 PM MDT MON JUL 27 2015

NOTE: "FAIR" INDICATES FEW OR NO CLOUDS BELOW 12000 FEET WITH NO
SIGNIFICANT WEATHER AND/OR OBSTRUCTIONS TO VISIBILITY.

COZ001>005-013-030-031-280100-
...NORTHWEST COLORADO...

CITY           SKY/WX    TMP DP  RH WIND       PRES   REMARKS
CRAIG          MOSUNNY   85  25  11 SW22G35   29.96S
HAYDEN         MOSUNNY   84  27  12 SW18G31   29.99S
MEEKER         SUNNY     86  25  11 W25G32    29.99S
MOUNT WERNER   NOT AVBL
STEAMBOAT SPGS MOSUNNY   82  35  17 SW15G28   30.02S
WALDEN         MOSUNNY   75  32  20 SW20G36   30.11S
$$

COZ006>008-011-280100-
...WEST CENTRAL VALLEYS...

CITY           SKY/WX    TMP DP  RH WIND       PRES   REMARKS
GRAND JUNCTION SUNNY     92  23   8 W17G26    29.88R
MONTROSE       SUNNY     89  33  13 SW15G23   30.01S
EAGLE          MOSUNNY   86  34  15 SW30G36   30.02
RIFLE          SUNNY     91  28  10 W24G31    29.92S
DELTA          SUNNY     95  29   9 SW16G23   29.93F
NUCLA          SUNNY     88  27  11 SW18G25   30.04F
$$

COZ017>023-064>068-280100-
...SOUTHWEST COLORADO...

CITY           SKY/WX    TMP DP  RH WIND       PRES   REMARKS
DURANGO        MOSUNNY   85  36  17 W12       30.11F
CORTEZ         SUNNY     88  28  11 SW15G22   30.04S
PAGOSA SPRINGS MOSUNNY   81  31  16 SW14G21   30.20F
TELLURIDE      SUNNY     73  33  22 SW12G28   30.32S
WOLF CREEK PAS NOT AVBL
$$

COZ009-010-012-014-032>034-037-058>063-280100-
...CENTRAL COLORADO...

CITY           SKY/WX    TMP DP  RH WIND       PRES   REMARKS
ASPEN          PTSUNNY   79  35  20 VRB6      30.14R
BUENA VISTA    MOSUNNY   82  31  15 W16G30    30.11F
COPPER MTN     MOSUNNY   64  32  29 W24G30    30.48F
BERTHOUD PASS  FAIR      54  45  71 W21       30.52S
COTTONWOOD PAS MOSUNNY   77  28  16 W9        30.29S
GUNNISON       MOSUNNY   81  34  18 W21G30    30.17R
KREMMLING      MOSUNNY   82  28  14 W13G24    30.09R
LEADVILLE      PTSUNNY   70  35  27 W12G22    30.29R
MONARCH PASS   PTSUNNY   61  36  39 W33G43    30.58S
SALIDA         PTSUNNY   83  42  23 W8        30.15F
SUNLIGHT       MOSUNNY   68  36  30 SW7       30.39R
WILKERSON PASS MOSUNNY   64  37  36 SW7       30.42F
$$

COZ069>075-280100-
...SAN LUIS VALLEY/SANGRE DE CRISTO MOUNTAINS...

CITY           SKY/WX    TMP DP  RH WIND       PRES   REMARKS
ALAMOSA        SUNNY     81  38  21 W14G22    30.15S
LA VETA PASS   PTSUNNY   64  43  45 MISG      30.34F
SAGUACHE       CLOUDY    79  43  27 NW6       30.14S
$$

COZ035-036-038>040-280100-
...NORTHERN COLORADO FRONT RANGE...

CITY           SKY/WX    TMP DP  RH WIND       PRES   REMARKS
DENVER INTL AP MOSUNNY   94  44  17 S6        29.83S
DMNS CITY PARK   N/A     94  42  16 SW2G13    29.82F
AURORA         MOSUNNY   92  47  21 S18       29.85F
FRONT RANGE AP PTSUNNY   91  43  18 W9G18     29.86R
ERIE MUNI ARPT MOSUNNY   95  36  12 CALM      29.80F
BOULDER MUN AP MOSUNNY   90  46  22 CALM      29.82S
CENTENNIAL     PTSUNNY   89  44  20 S9G22     29.87F
BROOMFIELD     NOT AVBL
FORT COLLINS   MOSUNNY   90  48  24 S10         N/A
LONGMONT       MOSUNNY   99  42  14 SW3       29.82S
$$

COZ041-046-047-076>085-087-088-280100-
...PIKES PEAK/PALMER DIVIDE AND SOUTHERN FOOTHILLS...

CITY           SKY/WX    TMP DP  RH WIND       PRES   REMARKS
COLO. SPRINGS  PTSUNNY   88  45  22 S16       29.96F
A. F. ACADEMY  SUNNY     87  43  21 S10       29.96F
ELLICOTT       MOSUNNY  N/A N/A N/A W14G20    29.95F
FALCON         MOSUNNY   85  42  22 S21G26    30.02F
FORT CARSON    MOSUNNY   91  47  22 S13       29.92F
LIMON          PTSUNNY   89  48  24 S17G24    29.88F
MONUMENT HILL  MOSUNNY   81  45  28 SW8       30.02F
TRINIDAD       PTSUNNY   91  46  21 W17       29.97S
$$

COZ042>045-048>051-090-091-280100-
...NORTHEAST COLORADO...

CITY           SKY/WX    TMP DP  RH WIND       PRES   REMARKS
GREELEY ARPT   SUNNY     93  55  27 SE10      29.78S
AKRON            N/A    N/A N/A N/A MISG      29.79F
BURLINGTON     MOSUNNY   90  65  43 SE13      29.80F
WRAY           PTSUNNY   94  63  36 SE18G28   29.74F
STERLING       NOT AVBL
HOLYOKE        PTSUNNY   91  64  40 S13G18    29.74F
FORT MORGAN    PTSUNNY   92  53  26 E9        29.78F
$$

COZ086-089-092>099-280100-
...SOUTHEAST COLORADO...

CITY           SKY/WX    TMP DP  RH WIND       PRES   REMARKS
PUEBLO         PTSUNNY   93  49  22 SW17      29.83F
LA JUNTA       PTSUNNY   96  52  22 SW18      29.82F
LAMAR          PTSUNNY   99  54  22 S14G23    29.76F
SPRINGFIELD      N/A     95  55  26 S22G30    29.87F
$$


USA.gov is the U.S. government's official web portal to all federal, state and local government web resources and services.